| time (UTC) | temp C | wind direction | speed KPH | gust KPH | rain 1hr cm | rain 24hr cm | rain mn cm | humidity % | barometer mb |
| 20260502123042 | 1 | 312 | 0.0 | 0.0 | 0.00 | 0.00 | 0.00 | 85 | 1021.0 |
| 20260502121524 | 0 | 312 | 0.0 | 0.0 | 0.00 | 0.00 | 0.00 | 90 | 1021.0 |
| 20260502114527 | -2 | 312 | 0.0 | 0.0 | 0.00 | 0.00 | 0.00 | 92 | 1020.9 |
| 20260502113022 | -2 | 312 | 0.0 | 0.0 | 0.00 | 0.00 | 0.00 | 92 | 1020.8 |
| 20260502111530 | -2 | 312 | 0.0 | 0.0 | 0.00 | 0.00 | 0.00 | 93 | 1020.8 |
| 20260502110037 | -2 | 311 | 0.0 | 0.0 | 0.00 | 0.00 | 0.00 | 93 | 1020.7 |
| 20260502104525 | -2 | 326 | 0.0 | 0.0 | 0.00 | 0.00 | 0.00 | 92 | 1020.8 |
| 20260502103028 | -2 | 326 | 0.0 | 0.0 | 0.00 | 0.00 | 0.00 | 92 | 1020.6 |
| 20260502101527 | -2 | 326 | 0.0 | 0.0 | 0.00 | 0.00 | 0.00 | 92 | 1020.6 |
| 20260502091516 | -2 | 326 | 0.0 | 0.0 | 0.00 | 0.00 | 0.00 | 91 | 1020.5 |
| 20260502071530 | -1 | 326 | 0.0 | 0.0 | 0.00 | 0.00 | 0.00 | 88 | 1020.5 |
| 20260502070015 | -1 | 326 | 0.0 | 0.0 | 0.00 | 0.00 | 0.00 | 88 | 1020.6 |
| 20260502064520 | -1 | 326 | 0.0 | 0.0 | 0.00 | 0.00 | 0.00 | 88 | 1020.6 |
| 20260502063022 | -1 | 326 | 0.0 | 0.0 | 0.00 | 0.00 | 0.00 | 87 | 1020.6 |
| 20260502061526 | 0 | 326 | 0.0 | 0.0 | 0.00 | 0.00 | 0.00 | 88 | 1020.5 |
| 20260502060028 | 0 | 326 | 0.0 | 0.0 | 0.00 | 0.00 | 0.00 | 87 | 1020.4 |
| 20260502054521 | 0 | 326 | 0.0 | 0.0 | 0.00 | 0.00 | 0.00 | 85 | 1020.4 |
| 20260502053019 | 0 | 326 | 0.0 | 0.0 | 0.00 | 0.00 | 0.00 | 85 | 1020.2 |
| 20260502051525 | 0 | 326 | 0.0 | 0.0 | 0.00 | 0.00 | 0.00 | 85 | 1020.2 |
| 20260502050033 | 0 | 326 | 0.0 | 0.0 | 0.00 | 0.00 | 0.00 | 84 | 1020.1 |
| 20260502044526 | 0 | 326 | 0.0 | 0.0 | 0.00 | 0.00 | 0.00 | 82 | 1020.0 |
| 20260502043015 | 1 | 326 | 0.0 | 0.0 | 0.00 | 0.00 | 0.00 | 79 | 1020.0 |
| 20260502041525 | 1 | 326 | 0.0 | 0.0 | 0.00 | 0.00 | 0.00 | 79 | 1020.0 |
| 20260502040024 | 1 | 326 | 0.0 | 0.0 | 0.00 | 0.00 | 0.00 | 78 | 1020.1 |
| 20260502034526 | 2 | 326 | 0.0 | 0.0 | 0.00 | 0.00 | 0.00 | 76 | 1020.1 |
| 20260502033031 | 2 | 326 | 0.0 | 0.0 | 0.00 | 0.00 | 0.00 | 74 | 1020.1 |
| 20260502031526 | 3 | 326 | 0.0 | 0.0 | 0.00 | 0.00 | 0.00 | 70 | 1019.9 |
| 20260502030028 | 3 | 326 | 0.0 | 0.0 | 0.00 | 0.00 | 0.00 | 68 | 1019.7 |
| 20260502024526 | 4 | 326 | 0.0 | 0.0 | 0.00 | 0.00 | 0.00 | 63 | 1019.6 |
| 20260502023026 | 5 | 326 | 0.0 | 0.0 | 0.00 | 0.00 | 0.00 | 61 | 1019.6 |
| 20260502021528 | 5 | 326 | 0.0 | 0.0 | 0.00 | 0.00 | 0.00 | 56 | 1019.4 |
| 20260502020026 | 6 | 326 | 0.0 | 0.0 | 0.00 | 0.00 | 0.00 | 51 | 1019.2 |
| 20260502014520 | 8 | 326 | 0.0 | 1.6 | 0.00 | 0.00 | 0.00 | 45 | 1019.1 |
| 20260502013023 | 8 | 352 | 0.0 | 6.4 | 0.00 | 0.00 | 0.00 | 41 | 1018.9 |
| 20260502011528 | 9 | 349 | 0.0 | 3.2 | 0.00 | 0.00 | 0.00 | 40 | 1018.6 |
| 20260502010031 | 10 | 355 | 1.6 | 6.4 | 0.00 | 0.00 | 0.00 | 38 | 1018.6 |
| 20260502004545 | 11 | 36 | 1.6 | 6.4 | 0.00 | 0.00 | 0.00 | 37 | 1018.4 |
| 20260502003019 | 11 | 311 | 0.0 | 6.4 | 0.00 | 0.00 | 0.00 | 38 | 1018.2 |
| 20260502001525 | 11 | 279 | 6.4 | 11.3 | 0.00 | 0.00 | 0.00 | 35 | 1018.2 |
| 20260502000030 | 11 | 321 | 6.4 | 16.1 | 0.00 | 0.00 | 0.00 | 35 | 1018.3 |
| 20260501234528 | 12 | 326 | 3.2 | 16.1 | 0.00 | 0.00 | 0.00 | 35 | 1018.1 |
| 20260501233028 | 12 | 314 | 4.8 | 17.7 | 0.00 | 0.00 | 0.00 | 34 | 1018.0 |
| 20260501231523 | 12 | 273 | 4.8 | 16.1 | 0.00 | 0.00 | 0.00 | 35 | 1017.9 |
| 20260501230005 | 12 | 316 | 6.4 | 17.7 | 0.00 | 0.00 | 0.00 | 34 | 1017.9 |
| 20260501224509 | 12 | 352 | 3.2 | 14.5 | 0.00 | 0.00 | 0.00 | 35 | 1017.9 |
| 20260501223014 | 12 | 300 | 9.7 | 17.7 | 0.00 | 0.00 | 0.00 | 34 | 1017.8 |
| 20260501221518 | 12 | 283 | 4.8 | 14.5 | 0.00 | 0.00 | 0.00 | 34 | 1017.8 |
| 20260501220030 | 12 | 304 | 4.8 | 17.7 | 0.00 | 0.00 | 0.00 | 33 | 1017.8 |
| 20260501214528 | 13 | 29 | 3.2 | 19.3 | 0.00 | 0.00 | 0.00 | 37 | 1017.8 |
| 20260501213028 | 13 | 321 | 1.6 | 12.9 | 0.00 | 0.00 | 0.00 | 36 | 1017.7 |
| 20260501211514 | 13 | 302 | 8.0 | 17.7 | 0.00 | 0.00 | 0.00 | 38 | 1017.9 |
| 20260501210035 | 13 | 319 | 8.0 | 12.9 | 0.00 | 0.00 | 0.00 | 31 | 1018.0 |
| 20260501204526 | 13 | 313 | 4.8 | 19.3 | 0.00 | 0.00 | 0.00 | 35 | 1018.2 |
| 20260501203028 | 13 | 287 | 3.2 | 14.5 | 0.00 | 0.00 | 0.00 | 34 | 1018.2 |
| 20260501201517 | 12 | 326 | 4.8 | 14.5 | 0.00 | 0.00 | 0.00 | 34 | 1018.3 |
| 20260501200020 | 12 | 307 | 9.7 | 17.7 | 0.00 | 0.00 | 0.00 | 37 | 1018.4 |
| 20260501194525 | 13 | 299 | 4.8 | 16.1 | 0.00 | 0.00 | 0.00 | 37 | 1018.3 |
| 20260501193025 | 13 | 336 | 9.7 | 22.5 | 0.00 | 0.00 | 0.00 | 40 | 1018.3 |
| 20260501191531 | 13 | 360 | 3.2 | 14.5 | 0.00 | 0.00 | 0.00 | 41 | 1018.3 |
| 20260501190014 | 13 | 320 | 6.4 | 16.1 | 0.00 | 0.00 | 0.00 | 41 | 1018.3 |
| 20260501184519 | 12 | 338 | 6.4 | 17.7 | 0.00 | 0.00 | 0.00 | 44 | 1018.4 |
| 20260501183026 | 12 | 337 | 8.0 | 19.3 | 0.00 | 0.00 | 0.00 | 46 | 1018.4 |
| 20260501181523 | 12 | 289 | 6.4 | 12.9 | 0.00 | 0.00 | 0.00 | 46 | 1018.4 |
| 20260501180042 | 12 | 304 | 3.2 | 12.9 | 0.00 | 0.00 | 0.00 | 49 | 1018.3 |
| 20260501174520 | 11 | 360 | 6.4 | 17.7 | 0.00 | 0.00 | 0.00 | 48 | 1018.6 |
| 20260501173022 | 12 | 292 | 6.4 | 16.1 | 0.00 | 0.00 | 0.00 | 51 | 1018.5 |
| 20260501171523 | 11 | 325 | 4.8 | 19.3 | 0.00 | 0.00 | 0.00 | 51 | 1018.7 |
| 20260501170024 | 11 | 295 | 6.4 | 19.3 | 0.00 | 0.00 | 0.00 | 55 | 1018.7 |
| 20260501164526 | 11 | 328 | 8.0 | 20.9 | 0.00 | 0.00 | 0.00 | 53 | 1018.7 |
| 20260501163016 | 10 | 294 | 4.8 | 12.9 | 0.00 | 0.00 | 0.00 | 59 | 1018.5 |
| 20260501161527 | 10 | 342 | 3.2 | 14.5 | 0.00 | 0.00 | 0.00 | 63 | 1018.6 |
| 20260501160024 | 11 | 284 | 8.0 | 16.1 | 0.00 | 0.00 | 0.00 | 60 | 1018.6 |
| 20260501154524 | 10 | 297 | 6.4 | 12.9 | 0.00 | 0.00 | 0.00 | 64 | 1018.6 |
| 20260501153026 | 10 | 347 | 8.0 | 12.9 | 0.00 | 0.00 | 0.00 | 64 | 1018.6 |
| 20260501151525 | 9 | 316 | 4.8 | 14.5 | 0.00 | 0.00 | 0.00 | 65 | 1018.5 |
| 20260501150037 | 8 | 3 | 4.8 | 14.5 | 0.00 | 0.00 | 0.00 | 67 | 1018.3 |
| 20260501144527 | 8 | 323 | 3.2 | 9.7 | 0.00 | 0.00 | 0.00 | 68 | 1018.4 |